FW4339 Weather Reports


Display with metric or nautical units.
time (UTC)temp
F
wind
direction
speed
MPH
gust
MPH
rain 1hr
in
rain 24hr
in
rain mn
in
humidity
%
barometer
mb
20260903064541 85 0.0 0.0 0.00 0.00 0.00 51 1011.9
20260903063045 84 0.0 0.0 0.00 0.00 0.00 50 1011.9
20260903061539 83 0.0 0.0 0.00 0.00 0.00 52 1011.9
20260903060106 83 0.0 0.0 0.00 0.00 0.00 53 1012.0
20260903054535 82 0.0 0.0 0.00 0.00 0.00 54 1012.1
20260903053032 82 0.0 0.0 0.00 0.00 0.00 54 1012.1
20260903051526 81 0.0 0.0 0.00 0.00 0.00 54 1012.0
20260903050023 80 0.0 0.0 0.00 0.00 0.00 54 1012.1
20260903044523 79 0.0 0.0 0.00 0.00 0.00 56 1012.0
20260903043025 79 0.0 0.0 0.00 0.00 0.00 59 1011.8
20260903041517 79 0.0 0.0 0.00 0.00 0.00 60 1011.9
20260903040016 79 0.0 0.0 0.00 0.00 0.00 59 1011.9
20260903034516 79 0.0 0.0 0.00 0.00 0.00 54 1011.9
20260903033015 79 0.0 0.0 0.00 0.00 0.00 51 1012.0
20260903031518 79 0.0 0.0 0.00 0.00 0.00 50 1011.9
20260903030012 79 0.0 0.0 0.00 0.00 0.00 49 1011.8
20260903024509 79 0.0 0.0 0.00 0.00 0.00 46 1011.8
20260903023008 79 0.0 0.0 0.00 0.00 0.00 44 1011.8
20260903021515 80 0.0 0.0 0.00 0.00 0.00 44 1011.8
20260903020010 80 0.0 0.0 0.00 0.00 0.00 44 1011.7
20260903014507 80 0.0 0.0 0.00 0.00 0.00 44 1011.7
20260903013007 79 0.0 0.0 0.00 0.00 0.00 45 1011.6
20260903011506 80 0.0 0.0 0.00 0.00 0.00 50 1011.5
20260903010001 81 0.0 0.0 0.00 0.00 0.00 47 1011.7
20260903004600 82 0.0 0.0 0.00 0.00 0.00 39 1011.7
20260903003100 82 0.0 0.0 0.00 0.00 0.00 40 1011.5
20260903001614 82 0.0 0.0 0.00 0.00 0.00 40 1011.5
20260903000059 83 0.0 0.0 0.00 0.00 0.00 42 1011.5
20260902234623 83 0.0 0.0 0.00 0.00 0.00 38 1011.6
20260902233058 83 0.0 0.0 0.00 0.00 0.00 37 1011.6
20260902231610 83 0.0 0.0 0.00 0.00 0.00 37 1011.6
20260902230108 83 0.0 0.0 0.00 0.00 0.00 38 1011.8
20260902224554 83 0.0 0.0 0.00 0.00 0.00 38 1011.8
20260902223054 82 0.0 0.0 0.00 0.00 0.00 39 1011.8
20260902221551 82 0.0 0.0 0.00 0.00 0.00 38 1012.0
20260902220056 83 0.0 0.0 0.00 0.00 0.00 38 1012.1
20260902214553 83 0.0 0.0 0.00 0.00 0.00 37 1012.1
20260902213051 83 0.0 0.0 0.00 0.00 0.00 36 1012.2
20260902211551 83 0.0 0.0 0.00 0.00 0.00 36 1012.2
20260902210053 83 0.0 0.0 0.00 0.00 0.00 36 1012.3
20260902204554 83 0.0 0.0 0.00 0.00 0.00 36 1012.3
20260902203052 83 0.0 0.0 0.00 0.00 0.00 36 1012.3
20260902201551 83 0.0 0.0 0.00 0.00 0.00 36 1012.3
20260902200050 83 0.0 0.0 0.00 0.00 0.00 36 1012.3
20260902194556 83 0.0 0.0 0.00 0.00 0.00 36 1012.4
20260902193055 83 0.0 0.0 0.00 0.00 0.00 36 1012.5
20260902191555 83 0.0 0.0 0.00 0.00 0.00 36 1012.4
20260902190054 83 0.0 0.0 0.00 0.00 0.00 36 1012.3
20260902184540 83 0.0 0.0 0.00 0.00 0.00 36 1012.4
20260902183041 83 0.0 0.0 0.00 0.00 0.00 36 1012.3
20260902181541 84 0.0 0.0 0.00 0.00 0.00 35 1012.2
20260902180045 84 0.0 0.0 0.00 0.00 0.00 35 1012.1
20260902174536 85 0.0 0.0 0.00 0.00 0.00 34 1011.9
20260902173036 85 0.0 0.0 0.00 0.00 0.00 34 1011.8
20260902171532 86 0.0 0.0 0.00 0.00 0.00 33 1011.7
20260902170029 87 0.0 0.0 0.00 0.00 0.00 31 1011.6
20260902164527 89 0.0 0.0 0.00 0.00 0.00 30 1011.6
20260902163022 90 0.0 0.0 0.00 0.00 0.00 29 1011.7
20260902161534 91 0.0 0.0 0.00 0.00 0.00 29 1011.8
20260902160018 92 0.0 0.0 0.00 0.00 0.00 28 1012.0
20260902154514 92 0.0 0.0 0.00 0.00 0.00 28 1012.0
20260902153012 93 0.0 0.0 0.00 0.00 0.00 27 1011.9
20260902151511 94 0.0 0.0 0.00 0.00 0.00 26 1011.9
20260902150008 94 0.0 0.0 0.00 0.00 0.00 26 1011.9
20260902144505 95 0.0 0.0 0.00 0.00 0.00 25 1011.9
20260902143003 95 0.0 0.0 0.00 0.00 0.00 25 1012.0
20260902141503 95 0.0 0.0 0.00 0.00 0.00 25 1012.1
20260902140100 96 0.0 0.0 0.00 0.00 0.00 25 1012.3
20260902134601 96 0.0 0.0 0.00 0.00 0.00 24 1012.4
20260902133100 97 0.0 0.0 0.00 0.00 0.00 23 1012.4
20260902131558 97 0.0 0.0 0.00 0.00 0.00 23 1012.6
20260902130054 97 0.0 0.0 0.00 0.00 0.00 22 1012.6
20260902124553 98 0.0 0.0 0.00 0.00 0.00 21 1012.7
20260902123049 98 0.0 0.0 0.00 0.00 0.00 21 1012.9
20260902121556 98 0.0 0.0 0.00 0.00 0.00 21 1013.1
20260902120056 99 0.0 0.0 0.00 0.00 0.00 20 1013.2
20260902114607 99 0.0 0.0 0.00 0.00 0.00 21 1013.3
20260902113056 99 0.0 0.0 0.00 0.00 0.00 21 1013.4
20260902111553 99 0.0 0.0 0.00 0.00 0.00 21 1013.6
20260902110044 99 0.0 0.0 0.00 0.00 0.00 21 1013.6
20260902104540 100 0.0 0.0 0.00 0.00 0.00 20 1013.7
20260902103035 100 0.0 0.0 0.00 0.00 0.00 20 1013.9
20260902101532 99 0.0 0.0 0.00 0.00 0.00 19 1013.9
20260902100030 98 0.0 0.0 0.00 0.00 0.00 20 1014.1
20260902094530 98 0.0 0.0 0.00 0.00 0.00 21 1014.1
20260902093026 97 0.0 0.0 0.00 0.00 0.00 21 1014.2
20260902091522 96 0.0 0.0 0.00 0.00 0.00 22 1014.2
20260902090018 95 0.0 0.0 0.00 0.00 0.00 24 1014.2